Weather History for KAOH - December, 2012

Change the Weather History Date:

Tuesday, December 11, 2012

  Actual Average (KFDY) Record (KFDY)
Temperature  
Mean Temperature 31 °F -  
Max Temperature 34 °F 36 °F 62 °F (1949)
Min Temperature 28 °F 24 °F -6 °F (1977)
Degree Days  
Heating Degree Days 34    
Moisture  
Dew Point 26 °F    
Average Humidity 78    
Maximum Humidity 89    
Minimum Humidity 60    
Precipitation  
Precipitation 0.00 in - - ()
Sea Level Pressure  
Sea Level Pressure 30.05 in    
Wind  
Wind Speed 9 mph (WSW)    
Max Wind Speed 14 mph    
Max Gust Speed -    
Visibility 8 miles    
Events Snow    
Averages and records for this station are not official NWS values.
T = Trace of Precipitation, MM = Missing Value Source: NWS Daily Summary

Daily Weather History Graph

Daily Weather History Graph

Search for Another Location

Airport or City:

Trip Planner

Search our weather history database for the weather conditions in past years. The results will help you decide how hot, cold, wet, or windy it might be!

Date:

Astronomy

Dec. 11, 2012 Rise Set
Actual Time 7:50 AM EST 5:08 PM EST
Civil Twilight 7:19 AM EST 5:39 PM EST
Nautical Twilight 6:45 AM EST 6:14 PM EST
Astronomical Twilight 6:11 AM EST 6:47 PM EST
Moon 5:43 AM EST (12/11) 3:47 PM EST (12/11)
Length of Visible Light 10h 20m
Length of Day
9h 18m
Waning Crescent, 4% of the Moon is Illuminated
Dec 11
Waning Crescent
Dec 13
New
Dec 20
First Quarter
Dec 28
Full
Jan 4
Last Quarter

Hourly Weather History & Observations

Time (EST) Temp. Windchill Dew Point Humidity Pressure Visibility Wind Dir Wind Speed Gust Speed Precip Events Conditions
12:45 AM 33.8 °F 27.7 °F 30.2 °F 87% 29.88 in 4.0 mi West 6.9 mph - N/A   Overcast
12:53 AM 34.0 °F 27.2 °F 30.9 °F 89% 29.90 in 4.0 mi WNW 8.1 mph - N/A   Overcast
1:00 AM 33.8 °F 27.0 °F 30.2 °F 87% 29.88 in 4.0 mi West 8.1 mph - N/A   Overcast
1:53 AM 34.0 °F 28.0 °F 30.9 °F 89% 29.91 in 4.0 mi West 6.9 mph - N/A   Overcast
2:28 AM 33.8 °F 27.0 °F 30.2 °F 87% 29.89 in 5.0 mi WNW 8.1 mph - N/A   Overcast
2:44 AM 33.8 °F 27.7 °F 30.2 °F 87% 29.90 in 5.0 mi West 6.9 mph - N/A   Overcast
2:53 AM 34.0 °F 28.0 °F 30.0 °F 85% 29.93 in 5.0 mi WNW 6.9 mph - N/A   Overcast
3:22 AM 33.8 °F 27.7 °F 30.2 °F 87% 29.92 in 4.0 mi West 6.9 mph - 0.00 in Snow Light Snow
3:53 AM 34.0 °F 26.0 °F 30.0 °F 85% 29.95 in 5.0 mi West 10.4 mph - 0.00 in   Overcast
4:22 AM 33.8 °F 26.4 °F 30.2 °F 87% 29.93 in 6.0 mi West 9.2 mph - N/A   Overcast
4:53 AM 33.1 °F 24.9 °F 30.0 °F 89% 29.97 in 6.0 mi West 10.4 mph - N/A   Overcast
5:53 AM 33.1 °F 23.4 °F 30.0 °F 89% 29.99 in 6.0 mi West 13.8 mph - N/A   Overcast
6:53 AM 33.1 °F 27.7 °F 28.9 °F 85% 30.00 in 6.0 mi WNW 5.8 mph - N/A   Overcast
7:16 AM 33.8 °F 25.3 °F 28.4 °F 81% 29.98 in 6.0 mi WSW 11.5 mph - N/A   Overcast
7:53 AM 32.0 °F 23.6 °F 28.0 °F 85% 30.04 in 6.0 mi West 10.4 mph - N/A   Overcast
8:53 AM 32.0 °F 23.6 °F 28.0 °F 85% 30.06 in 6.0 mi West 10.4 mph - N/A   Overcast
9:28 AM 32.0 °F 23.6 °F 26.6 °F 80% 30.04 in 8.0 mi WNW 10.4 mph - N/A   Overcast
9:53 AM 32.0 °F 24.8 °F 26.1 °F 79% 30.09 in 8.0 mi WNW 8.1 mph - N/A   Overcast
10:53 AM 32.0 °F 24.8 °F 26.1 °F 79% 30.10 in 4.0 mi West 8.1 mph - 0.00 in Snow Light Snow
11:27 AM 33.8 °F 25.8 °F 26.6 °F 75% 30.08 in 8.0 mi West 10.4 mph - 0.00 in   Overcast
11:38 AM 33.8 °F 25.3 °F 26.6 °F 75% 30.07 in 9.0 mi West 11.5 mph - 0.00 in   Overcast
11:53 AM 33.1 °F 23.4 °F 26.1 °F 75% 30.10 in 10.0 mi West 13.8 mph - 0.00 in   Overcast
12:08 PM 33.8 °F 24.8 °F 26.6 °F 75% 30.07 in 10.0 mi WSW 12.7 mph - N/A   Overcast
12:53 PM 33.1 °F 25.5 °F 25.0 °F 72% 30.10 in 10.0 mi WSW 9.2 mph - N/A   Overcast
1:40 PM 32.0 °F 23.0 °F 24.8 °F 75% 30.08 in 10.0 mi WSW 11.5 mph - N/A   Overcast
1:53 PM 33.1 °F 24.9 °F 25.0 °F 72% 30.10 in 10.0 mi WSW 10.4 mph - N/A   Overcast
2:37 PM 33.8 °F 25.3 °F 21.2 °F 60% 30.08 in 10.0 mi WSW 11.5 mph - N/A   Overcast
2:53 PM 33.1 °F 24.4 °F 21.9 °F 64% 30.10 in 10.0 mi WSW 11.5 mph - N/A   Overcast
3:53 PM 33.1 °F 24.4 °F 21.0 °F 61% 30.12 in 10.0 mi SW 11.5 mph - N/A   Mostly Cloudy
4:53 PM 32.0 °F 24.2 °F 21.0 °F 64% 30.14 in 10.0 mi SW 9.2 mph - N/A   Mostly Cloudy
5:34 PM 30.2 °F 22.6 °F 21.2 °F 69% 30.11 in 10.0 mi SW 8.1 mph - N/A   Mostly Cloudy
5:53 PM 30.9 °F 22.8 °F 21.9 °F 69% 30.15 in 10.0 mi SW 9.2 mph - N/A   Scattered Clouds
6:53 PM 30.0 °F 22.4 °F 21.0 °F 69% 30.16 in 10.0 mi SSW 8.1 mph - N/A   Clear
7:53 PM 28.9 °F 21.9 °F 21.9 °F 75% 30.17 in 10.0 mi SSW 6.9 mph - N/A   Clear
8:53 PM 28.9 °F 20.4 °F 21.9 °F 75% 30.19 in 10.0 mi South 9.2 mph - N/A   Clear
9:53 PM 28.9 °F 20.4 °F 21.9 °F 75% 30.19 in 10.0 mi South 9.2 mph - N/A   Clear
10:53 PM 28.9 °F 20.4 °F 21.9 °F 75% 30.21 in 10.0 mi SSW 9.2 mph - N/A   Clear
11:53 PM 28.9 °F 20.4 °F 21.9 °F 75% 30.23 in 10.0 mi SSW 9.2 mph - N/A   Clear